EZY8T EGHQ-EGHQ

Flight info

Callsign EZY8T
Flight time 0h 12m
Altitude 1500
Route EGHQ
Aircraft A320/M-SDE2E3FGHIJ1RWXYZ/LB1

Departure

Time 2026-04-29 16:06
Airport Cornwall Airport Newquay (EGHQ)

Arrival

Time 2026-04-29 16:18
Airport Cornwall Airport Newquay (EGHQ)
Time Latitude Longitude Altitude Speed Heading
2026-04-29 15:42 50.44655 -5.00371 327 ft 0 kts 74°
2026-04-29 15:59 50.44653 -5.00395 325 ft 4 kts 79°
2026-04-29 15:59 50.44646 -5.00430 326 ft 4 kts 46°
2026-04-29 15:59 50.44628 -5.00440 323 ft 4 kts 330°
2026-04-29 15:59 50.44609 -5.00413 324 ft 4 kts 303°
2026-04-29 16:00 50.44606 -5.00406 325 ft 0 kts 301°
2026-04-29 16:01 50.44622 -5.00448 323 ft 11 kts 301°
2026-04-29 16:02 50.44674 -5.00585 323 ft 18 kts 301°
2026-04-29 16:02 50.44746 -5.00773 318 ft 12 kts 302°
2026-04-29 16:02 50.44754 -5.00794 317 ft 0 kts 302°
2026-04-29 16:03 50.44761 -5.00813 317 ft 9 kts 301°
2026-04-29 16:04 50.44808 -5.00968 314 ft 19 kts 277°
2026-04-29 16:04 50.44745 -5.01140 310 ft 20 kts 209°
2026-04-29 16:04 50.44688 -5.01149 311 ft 5 kts 137°
2026-04-29 16:04 50.44670 -5.01111 312 ft 0 kts 120°
2026-04-29 16:05 50.44665 -5.01096 312 ft 10 kts 120°
2026-04-29 16:05 50.44584 -5.00881 316 ft 68 kts 121°
2026-04-29 16:05 50.43997 -4.99322 388 ft 169 kts 121°
2026-04-29 16:06 50.43588 -4.98257 927 ft 172 kts 121°
2026-04-29 16:06 50.42930 -4.96525 1459 ft 201 kts 121°
2026-04-29 16:06 50.42235 -4.94727 1454 ft 184 kts 125°
2026-04-29 16:06 50.41297 -4.93438 1470 ft 175 kts 156°
2026-04-29 16:07 50.40137 -4.93182 1467 ft 171 kts 191°
2026-04-29 16:07 50.39095 -4.93995 1465 ft 169 kts 225°
2026-04-29 16:07 50.38543 -4.95608 1477 ft 168 kts 261°
2026-04-29 16:07 50.38687 -4.97397 1473 ft 169 kts 295°
2026-04-29 16:08 50.39264 -4.98991 1458 ft 168 kts 300°
2026-04-29 16:08 50.39867 -5.00593 1439 ft 168 kts 300°
2026-04-29 16:08 50.40468 -5.02166 1420 ft 168 kts 301°
2026-04-29 16:08 50.41083 -5.03757 1411 ft 168 kts 301°
2026-04-29 16:09 50.41693 -5.05321 1402 ft 168 kts 301°
2026-04-29 16:09 50.42305 -5.06885 1403 ft 168 kts 301°
2026-04-29 16:09 50.42892 -5.08466 1380 ft 168 kts 299°
2026-04-29 16:09 50.43521 -5.09998 1396 ft 168 kts 316°
2026-04-29 16:10 50.44579 -5.10796 1422 ft 169 kts 351°
2026-04-29 16:10 50.45732 -5.10553 1445 ft 170 kts 24°
2026-04-29 16:10 50.46622 -5.09378 1473 ft 163 kts 57°
2026-04-29 16:10 50.46919 -5.07815 1501 ft 142 kts 88°
2026-04-29 16:11 50.46800 -5.06599 1476 ft 133 kts 111°
2026-04-29 16:11 50.46322 -5.05463 1289 ft 119 kts 121°
2026-04-29 16:11 50.45897 -5.04389 994 ft 114 kts 113°
2026-04-29 16:11 50.45506 -5.03318 734 ft 113 kts 112°
2026-04-29 16:12 50.45097 -5.02235 505 ft 113 kts 115°
2026-04-29 16:12 50.44831 -5.01537 399 ft 112 kts 115°
2026-04-29 16:12 50.44328 -5.00202 464 ft 99 kts 116°
2026-04-29 16:12 50.43913 -4.99147 1246 ft 125 kts 117°
2026-04-29 16:13 50.43402 -4.97857 2025 ft 148 kts 116°
2026-04-29 16:13 50.42958 -4.96357 2744 ft 158 kts 94°
2026-04-29 16:13 50.43415 -4.94851 2905 ft 168 kts 43°
2026-04-29 16:13 50.44668 -4.94634 2963 ft 203 kts 351°
2026-04-29 16:14 50.45782 -4.96157 2908 ft 225 kts 308°
2026-04-29 16:14 50.46629 -4.98274 2767 ft 226 kts 307°
2026-04-29 16:14 50.47473 -5.00382 2795 ft 225 kts 307°
2026-04-29 16:14 50.48283 -5.02436 2867 ft 224 kts 307°
2026-04-29 16:15 50.49094 -5.04528 2933 ft 225 kts 307°
2026-04-29 16:15 50.49883 -5.06659 3018 ft 216 kts 297°
2026-04-29 16:15 50.49932 -5.08759 3212 ft 185 kts 241°
2026-04-29 16:15 50.49156 -5.09951 3036 ft 137 kts 179°
2026-04-29 16:16 50.48316 -5.09861 2627 ft 115 kts 143°
2026-04-29 16:16 50.47662 -5.09135 2117 ft 113 kts 122°
2026-04-29 16:16 50.47299 -5.08079 1854 ft 111 kts 109°
2026-04-29 16:16 50.46937 -5.06986 1622 ft 115 kts 114°
2026-04-29 16:17 50.46524 -5.05916 1229 ft 115 kts 116°
2026-04-29 16:17 50.46115 -5.04859 975 ft 113 kts 116°
2026-04-29 16:17 50.45693 -5.03816 734 ft 111 kts 113°
2026-04-29 16:17 50.45293 -5.02745 585 ft 112 kts 115°
2026-04-29 16:18 50.44890 -5.01691 427 ft 113 kts 115°
2026-04-29 16:18 50.44496 -5.00647 327 ft 104 kts 118°
2026-04-29 16:18 50.44217 -4.99901 338 ft 39 kts 121°
2026-04-29 16:18 50.44173 -4.99756 351 ft 5 kts 115°
2026-04-29 16:19 50.44158 -4.99780 350 ft 6 kts 282°
2026-04-29 16:19 50.44219 -4.99945 338 ft 24 kts 299°
2026-04-29 16:19 50.44307 -5.00181 333 ft 26 kts 300°
2026-04-29 16:19 50.44357 -5.00434 329 ft 23 kts 254°
2026-04-29 16:20 50.44306 -5.00644 325 ft 21 kts 248°
2026-04-29 16:20 50.44255 -5.00800 324 ft 9 kts 207°
2026-04-29 16:20 50.44227 -5.00763 326 ft 4 kts 79°
2026-04-29 16:20 50.44242 -5.00719 325 ft 0 kts 65°